Location: La Fredeussais
(48.1780°N, 1.3980°W)
Time: 17:26:34
(UTC+00:00)

CZ-4C R/B - Pass Details

Date: 09 May 2021
Orbit: 609 x 1393 km, 63.4° (Epoch: 21 June)

Event Time Altitude Azimuth Distance (km) Brightness Sun altitude
Rises 22:56:51 0° 313° (NW) 3,915 6.6 -22.6°
Reaches altitude 10° 22:59:41 10° 304° (WNW) 3,067 5.7 -22.7°
Maximum altitude 23:06:04 31° 246° (WSW) 2,071 4.1 -23.0°
Enters shadow 23:08:59 25° 212° (SSW) 2,394 4.1 -23.1°
